Data supplied by UK-AIR on 5/4/2008
All Data GMT hour ending 
Status: R =Ratified P=Provisional,P*=As supplied
,,Lough Navar,,,,,,,,,,,,,,,,,,,,,,,
Date,time,"PM10 particulate matter (Hourly measured)",status,unit,"Ozone",status,unit
 
01-01-2000,01:00,10,R,ugm-3 (GRAV EQ),,,
01-01-2000,02:00,9,R,ugm-3 (GRAV EQ),,,
01-01-2000,03:00,8,R,ugm-3 (GRAV EQ),,,
01-01-2000,04:00,5,R,ugm-3 (GRAV EQ),,,
01-01-2000,05:00,7,R,ugm-3 (GRAV EQ),,,
01-01-2000,06:00,7,R,ugm-3 (GRAV EQ),,,
01-01-2000,07:00,8,R,ugm-3 (GRAV EQ),,,
01-01-2000,08:00,8,R,ugm-3 (GRAV EQ),,,
01-01-2000,09:00,8,R,ugm-3 (GRAV EQ),,,
01-01-2000,10:00,10,R,ugm-3 (GRAV EQ),,,
01-01-2000,11:00,18,R,ugm-3 (GRAV EQ),,,
01-01-2000,12:00,22,R,ugm-3 (GRAV EQ),,,
01-01-2000,13:00,20,R,ugm-3 (GRAV EQ),,,
01-01-2000,14:00,20,R,ugm-3 (GRAV EQ),,,
01-01-2000,15:00,21,R,ugm-3 (GRAV EQ),,,
01-01-2000,16:00,14,R,ugm-3 (GRAV EQ),,,
01-01-2000,17:00,17,R,ugm-3 (GRAV EQ),,,
01-01-2000,18:00,22,R,ugm-3 (GRAV EQ),,,
01-01-2000,19:00,22,R,ugm-3 (GRAV EQ),,,
01-01-2000,20:00,20,R,ugm-3 (GRAV EQ),,,
01-01-2000,21:00,17,R,ugm-3 (GRAV EQ),,,
01-01-2000,22:00,17,R,ugm-3 (GRAV EQ),,,
01-01-2000,23:00,17,R,ugm-3 (GRAV EQ),,,
01-01-2000,24:00,18,R,ugm-3 (GRAV EQ),,,
02-01-2000,01:00,12,R,ugm-3 (GRAV EQ),,,
02-01-2000,02:00,8,R,ugm-3 (GRAV EQ),,,
02-01-2000,03:00,10,R,ugm-3 (GRAV EQ),,,
02-01-2000,04:00,14,R,ugm-3 (GRAV EQ),,,
02-01-2000,05:00,20,R,ugm-3 (GRAV EQ),,,
02-01-2000,06:00,17,R,ugm-3 (GRAV EQ),,,
02-01-2000,07:00,7,R,ugm-3 (GRAV EQ),,,
02-01-2000,08:00,7,R,ugm-3 (GRAV EQ),,,
02-01-2000,09:00,7,R,ugm-3 (GRAV EQ),,,
02-01-2000,10:00,12,R,ugm-3 (GRAV EQ),,,
02-01-2000,11:00,10,R,ugm-3 (GRAV EQ),,,
02-01-2000,12:00,12,R,ugm-3 (GRAV EQ),,,
02-01-2000,13:00,9,R,ugm-3 (GRAV EQ),,,
02-01-2000,14:00,7,R,ugm-3 (GRAV EQ),,,
02-01-2000,15:00,5,R,ugm-3 (GRAV EQ),,,
02-01-2000,16:00,8,R,ugm-3 (GRAV EQ),,,
02-01-2000,17:00,4,R,ugm-3 (GRAV EQ),,,
02-01-2000,18:00,9,R,ugm-3 (GRAV EQ),,,
02-01-2000,19:00,9,R,ugm-3 (GRAV EQ),,,
02-01-2000,20:00,8,R,ugm-3 (GRAV EQ),,,
02-01-2000,21:00,7,R,ugm-3 (GRAV EQ),,,
02-01-2000,22:00,5,R,ugm-3 (GRAV EQ),,,
02-01-2000,23:00,10,R,ugm-3 (GRAV EQ),,,
02-01-2000,24:00,29,R,ugm-3 (GRAV EQ),,,
03-01-2000,01:00,29,R,ugm-3 (GRAV EQ),,,
03-01-2000,02:00,27,R,ugm-3 (GRAV EQ),,,
03-01-2000,03:00,23,R,ugm-3 (GRAV EQ),,,
03-01-2000,04:00,23,R,ugm-3 (GRAV EQ),,,
03-01-2000,05:00,22,R,ugm-3 (GRAV EQ),,,
03-01-2000,06:00,16,R,ugm-3 (GRAV EQ),,,
03-01-2000,07:00,16,R,ugm-3 (GRAV EQ),,,
03-01-2000,08:00,21,R,ugm-3 (GRAV EQ),,,
03-01-2000,09:00,21,R,ugm-3 (GRAV EQ),,,
03-01-2000,10:00,17,R,ugm-3 (GRAV EQ),,,
03-01-2000,11:00,20,R,ugm-3 (GRAV EQ),,,
03-01-2000,12:00,17,R,ugm-3 (GRAV EQ),,,
03-01-2000,13:00,17,R,ugm-3 (GRAV EQ),,,
03-01-2000,14:00,20,R,ugm-3 (GRAV EQ),,,
03-01-2000,15:00,17,R,ugm-3 (GRAV EQ),,,
03-01-2000,16:00,16,R,ugm-3 (GRAV EQ),,,
03-01-2000,17:00,18,R,ugm-3 (GRAV EQ),,,
03-01-2000,18:00,18,R,ugm-3 (GRAV EQ),,,
03-01-2000,19:00,31,R,ugm-3 (GRAV EQ),,,
03-01-2000,20:00,13,R,ugm-3 (GRAV EQ),,,
03-01-2000,21:00,16,R,ugm-3 (GRAV EQ),,,
03-01-2000,22:00,21,R,ugm-3 (GRAV EQ),,,
03-01-2000,23:00,18,R,ugm-3 (GRAV EQ),,,
03-01-2000,24:00,20,R,ugm-3 (GRAV EQ),,,
04-01-2000,01:00,20,R,ugm-3 (GRAV EQ),,,
04-01-2000,02:00,17,R,ugm-3 (GRAV EQ),,,
04-01-2000,03:00,10,R,ugm-3 (GRAV EQ),,,
04-01-2000,04:00,12,R,ugm-3 (GRAV EQ),,,
04-01-2000,05:00,10,R,ugm-3 (GRAV EQ),,,
04-01-2000,06:00,9,R,ugm-3 (GRAV EQ),,,
04-01-2000,07:00,9,R,ugm-3 (GRAV EQ),,,
04-01-2000,08:00,4,R,ugm-3 (GRAV EQ),,,
04-01-2000,09:00,5,R,ugm-3 (GRAV EQ),,,
04-01-2000,10:00,9,R,ugm-3 (GRAV EQ),,,
04-01-2000,11:00,7,R,ugm-3 (GRAV EQ),,,
04-01-2000,12:00,7,R,ugm-3 (GRAV EQ),,,
04-01-2000,13:00,12,R,ugm-3 (GRAV EQ),,,
04-01-2000,14:00,12,R,ugm-3 (GRAV EQ),,,
04-01-2000,15:00,10,R,ugm-3 (GRAV EQ),,,
04-01-2000,16:00,9,R,ugm-3 (GRAV EQ),,,
04-01-2000,17:00,5,R,ugm-3 (GRAV EQ),,,
04-01-2000,18:00,7,R,ugm-3 (GRAV EQ),,,
04-01-2000,19:00,12,R,ugm-3 (GRAV EQ),,,
04-01-2000,20:00,13,R,ugm-3 (GRAV EQ),,,
04-01-2000,21:00,10,R,ugm-3 (GRAV EQ),,,
04-01-2000,22:00,13,R,ugm-3 (GRAV EQ),,,
04-01-2000,23:00,13,R,ugm-3 (GRAV EQ),,,
04-01-2000,24:00,17,R,ugm-3 (GRAV EQ),,,
05-01-2000,01:00,10,R,ugm-3 (GRAV EQ),,,
05-01-2000,02:00,10,R,ugm-3 (GRAV EQ),,,
05-01-2000,03:00,12,R,ugm-3 (GRAV EQ),,,
05-01-2000,04:00,14,R,ugm-3 (GRAV EQ),,,
05-01-2000,05:00,18,R,ugm-3 (GRAV EQ),,,
05-01-2000,06:00,14,R,ugm-3 (GRAV EQ),,,
05-01-2000,07:00,10,R,ugm-3 (GRAV EQ),,,
05-01-2000,08:00,9,R,ugm-3 (GRAV EQ),,,
05-01-2000,09:00,9,R,ugm-3 (GRAV EQ),,,
05-01-2000,10:00,12,R,ugm-3 (GRAV EQ),,,
05-01-2000,11:00,12,R,ugm-3 (GRAV EQ),,,
05-01-2000,12:00,14,R,ugm-3 (GRAV EQ),,,
05-01-2000,13:00,14,R,ugm-3 (GRAV EQ),,,
05-01-2000,14:00,17,R,ugm-3 (GRAV EQ),,,
05-01-2000,15:00,21,R,ugm-3 (GRAV EQ),,,
05-01-2000,16:00,10,R,ugm-3 (GRAV EQ),,,
05-01-2000,17:00,8,R,ugm-3 (GRAV EQ),,,
05-01-2000,18:00,9,R,ugm-3 (GRAV EQ),,,
05-01-2000,19:00,13,R,ugm-3 (GRAV EQ),,,
05-01-2000,20:00,20,R,ugm-3 (GRAV EQ),,,
05-01-2000,21:00,13,R,ugm-3 (GRAV EQ),,,
05-01-2000,22:00,10,R,ugm-3 (GRAV EQ),,,
05-01-2000,23:00,14,R,ugm-3 (GRAV EQ),,,
05-01-2000,24:00,14,R,ugm-3 (GRAV EQ),,,
06-01-2000,01:00,12,R,ugm-3 (GRAV EQ),,,
06-01-2000,02:00,9,R,ugm-3 (GRAV EQ),,,
06-01-2000,03:00,10,R,ugm-3 (GRAV EQ),,,
06-01-2000,04:00,9,R,ugm-3 (GRAV EQ),,,
06-01-2000,05:00,7,R,ugm-3 (GRAV EQ),,,
06-01-2000,06:00,7,R,ugm-3 (GRAV EQ),,,
06-01-2000,07:00,14,R,ugm-3 (GRAV EQ),,,
06-01-2000,08:00,12,R,ugm-3 (GRAV EQ),,,
06-01-2000,09:00,13,R,ugm-3 (GRAV EQ),,,
06-01-2000,10:00,12,R,ugm-3 (GRAV EQ),,,
06-01-2000,11:00,13,R,ugm-3 (GRAV EQ),,,
06-01-2000,12:00,14,R,ugm-3 (GRAV EQ),,,
06-01-2000,13:00,13,R,ugm-3 (GRAV EQ),,,
06-01-2000,14:00,17,R,ugm-3 (GRAV EQ),,,
06-01-2000,15:00,21,R,ugm-3 (GRAV EQ),,,
06-01-2000,16:00,12,R,ugm-3 (GRAV EQ),,,
06-01-2000,17:00,12,R,ugm-3 (GRAV EQ),,,
06-01-2000,18:00,22,R,ugm-3 (GRAV EQ),,,
06-01-2000,19:00,26,R,ugm-3 (GRAV EQ),,,
06-01-2000,20:00,25,R,ugm-3 (GRAV EQ),,,
06-01-2000,21:00,20,R,ugm-3 (GRAV EQ),,,
06-01-2000,22:00,16,R,ugm-3 (GRAV EQ),,,
06-01-2000,23:00,12,R,ugm-3 (GRAV EQ),,,
06-01-2000,24:00,13,R,ugm-3 (GRAV EQ),,,
07-01-2000,01:00,12,R,ugm-3 (GRAV EQ),,,
07-01-2000,02:00,7,R,ugm-3 (GRAV EQ),,,
07-01-2000,03:00,4,R,ugm-3 (GRAV EQ),,,
07-01-2000,04:00,4,R,ugm-3 (GRAV EQ),,,
07-01-2000,05:00,8,R,ugm-3 (GRAV EQ),,,
07-01-2000,06:00,7,R,ugm-3 (GRAV EQ),,,
07-01-2000,07:00,4,R,ugm-3 (GRAV EQ),,,
07-01-2000,08:00,1,R,ugm-3 (GRAV EQ),,,
07-01-2000,09:00,9,R,ugm-3 (GRAV EQ),,,
07-01-2000,10:00,7,R,ugm-3 (GRAV EQ),,,
07-01-2000,11:00,12,R,ugm-3 (GRAV EQ),,,
07-01-2000,12:00,1,R,ugm-3 (GRAV EQ),,,
07-01-2000,13:00,4,R,ugm-3 (GRAV EQ),,,
07-01-2000,14:00,0,R,ugm-3 (GRAV EQ),,,
07-01-2000,15:00,3,R,ugm-3 (GRAV EQ),,,
07-01-2000,16:00,10,R,ugm-3 (GRAV EQ),,,
07-01-2000,17:00,9,R,ugm-3 (GRAV EQ),,,
07-01-2000,18:00,8,R,ugm-3 (GRAV EQ),,,
07-01-2000,19:00,12,R,ugm-3 (GRAV EQ),,,
07-01-2000,20:00,17,R,ugm-3 (GRAV EQ),,,
07-01-2000,21:00,20,R,ugm-3 (GRAV EQ),,,
07-01-2000,22:00,17,R,ugm-3 (GRAV EQ),,,
07-01-2000,23:00,13,R,ugm-3 (GRAV EQ),,,
07-01-2000,24:00,18,R,ugm-3 (GRAV EQ),,,
08-01-2000,01:00,17,R,ugm-3 (GRAV EQ),,,
08-01-2000,02:00,21,R,ugm-3 (GRAV EQ),,,
08-01-2000,03:00,17,R,ugm-3 (GRAV EQ),,,
08-01-2000,04:00,12,R,ugm-3 (GRAV EQ),,,
08-01-2000,05:00,12,R,ugm-3 (GRAV EQ),,,
08-01-2000,06:00,13,R,ugm-3 (GRAV EQ),,,
08-01-2000,07:00,16,R,ugm-3 (GRAV EQ),,,
08-01-2000,08:00,13,R,ugm-3 (GRAV EQ),,,
08-01-2000,09:00,14,R,ugm-3 (GRAV EQ),,,
08-01-2000,10:00,8,R,ugm-3 (GRAV EQ),,,
08-01-2000,11:00,8,R,ugm-3 (GRAV EQ),,,
08-01-2000,12:00,14,R,ugm-3 (GRAV EQ),,,
08-01-2000,13:00,16,R,ugm-3 (GRAV EQ),,,
08-01-2000,14:00,10,R,ugm-3 (GRAV EQ),,,
08-01-2000,15:00,20,R,ugm-3 (GRAV EQ),,,
08-01-2000,16:00,8,R,ugm-3 (GRAV EQ),,,
08-01-2000,17:00,16,R,ugm-3 (GRAV EQ),,,
08-01-2000,18:00,20,R,ugm-3 (GRAV EQ),,,
08-01-2000,19:00,14,R,ugm-3 (GRAV EQ),,,
08-01-2000,20:00,13,R,ugm-3 (GRAV EQ),,,
08-01-2000,21:00,14,R,ugm-3 (GRAV EQ),,,
08-01-2000,22:00,10,R,ugm-3 (GRAV EQ),,,
08-01-2000,23:00,13,R,ugm-3 (GRAV EQ),,,
08-01-2000,24:00,10,R,ugm-3 (GRAV EQ),,,
09-01-2000,01:00,8,R,ugm-3 (GRAV EQ),,,
09-01-2000,02:00,9,R,ugm-3 (GRAV EQ),,,
09-01-2000,03:00,9,R,ugm-3 (GRAV EQ),,,
09-01-2000,04:00,8,R,ugm-3 (GRAV EQ),,,
09-01-2000,05:00,5,R,ugm-3 (GRAV EQ),,,
09-01-2000,06:00,7,R,ugm-3 (GRAV EQ),,,
09-01-2000,07:00,7,R,ugm-3 (GRAV EQ),,,
09-01-2000,08:00,9,R,ugm-3 (GRAV EQ),,,
09-01-2000,09:00,4,R,ugm-3 (GRAV EQ),,,
09-01-2000,10:00,7,R,ugm-3 (GRAV EQ),,,
09-01-2000,11:00,8,R,ugm-3 (GRAV EQ),,,
09-01-2000,12:00,9,R,ugm-3 (GRAV EQ),,,
09-01-2000,13:00,8,R,ugm-3 (GRAV EQ),,,
09-01-2000,14:00,8,R,ugm-3 (GRAV EQ),,,
09-01-2000,15:00,8,R,ugm-3 (GRAV EQ),,,
09-01-2000,16:00,4,R,ugm-3 (GRAV EQ),,,
09-01-2000,17:00,14,R,ugm-3 (GRAV EQ),,,
09-01-2000,18:00,38,R,ugm-3 (GRAV EQ),,,
09-01-2000,19:00,7,R,ugm-3 (GRAV EQ),,,
09-01-2000,20:00,51,R,ugm-3 (GRAV EQ),,,
09-01-2000,21:00,21,R,ugm-3 (GRAV EQ),,,
09-01-2000,22:00,12,R,ugm-3 (GRAV EQ),,,
09-01-2000,23:00,13,R,ugm-3 (GRAV EQ),,,
09-01-2000,24:00,14,R,ugm-3 (GRAV EQ),,,
10-01-2000,01:00,12,R,ugm-3 (GRAV EQ),,,
10-01-2000,02:00,12,R,ugm-3 (GRAV EQ),,,
10-01-2000,03:00,10,R,ugm-3 (GRAV EQ),,,
10-01-2000,04:00,9,R,ugm-3 (GRAV EQ),,,
10-01-2000,05:00,10,R,ugm-3 (GRAV EQ),,,
10-01-2000,06:00,8,R,ugm-3 (GRAV EQ),,,
10-01-2000,07:00,8,R,ugm-3 (GRAV EQ),,,
10-01-2000,08:00,8,R,ugm-3 (GRAV EQ),,,
10-01-2000,09:00,9,R,ugm-3 (GRAV EQ),,,
10-01-2000,10:00,1,R,ugm-3 (GRAV EQ),,,
10-01-2000,11:00,3,R,ugm-3 (GRAV EQ),,,
10-01-2000,12:00,3,R,ugm-3 (GRAV EQ),,,
10-01-2000,13:00,1,R,ugm-3 (GRAV EQ),,,
10-01-2000,14:00,,,,,,
10-01-2000,15:00,,,,,,
10-01-2000,16:00,,,,,,
10-01-2000,17:00,,,,,,
10-01-2000,18:00,,,,,,
10-01-2000,19:00,27,R,ugm-3 (GRAV EQ),,,
10-01-2000,20:00,17,R,ugm-3 (GRAV EQ),,,
10-01-2000,21:00,16,R,ugm-3 (GRAV EQ),,,
10-01-2000,22:00,7,R,ugm-3 (GRAV EQ),,,
10-01-2000,23:00,5,R,ugm-3 (GRAV EQ),,,
10-01-2000,24:00,5,R,ugm-3 (GRAV EQ),,,
11-01-2000,01:00,4,R,ugm-3 (GRAV EQ),,,
11-01-2000,02:00,9,R,ugm-3 (GRAV EQ),,,
11-01-2000,03:00,9,R,ugm-3 (GRAV EQ),,,
11-01-2000,04:00,8,R,ugm-3 (GRAV EQ),,,
11-01-2000,05:00,7,R,ugm-3 (GRAV EQ),,,
11-01-2000,06:00,7,R,ugm-3 (GRAV EQ),,,
11-01-2000,07:00,10,R,ugm-3 (GRAV EQ),,,
11-01-2000,08:00,9,R,ugm-3 (GRAV EQ),,,
11-01-2000,09:00,12,R,ugm-3 (GRAV EQ),,,
11-01-2000,10:00,9,R,ugm-3 (GRAV EQ),,,
11-01-2000,11:00,12,R,ugm-3 (GRAV EQ),,,
11-01-2000,12:00,10,R,ugm-3 (GRAV EQ),,,
11-01-2000,13:00,17,R,ugm-3 (GRAV EQ),,,
11-01-2000,14:00,16,R,ugm-3 (GRAV EQ),,,
11-01-2000,15:00,12,R,ugm-3 (GRAV EQ),,,
11-01-2000,16:00,3,R,ugm-3 (GRAV EQ),,,
11-01-2000,17:00,7,R,ugm-3 (GRAV EQ),,,
11-01-2000,18:00,5,R,ugm-3 (GRAV EQ),,,
11-01-2000,19:00,8,R,ugm-3 (GRAV EQ),,,
11-01-2000,20:00,5,R,ugm-3 (GRAV EQ),,,
11-01-2000,21:00,14,R,ugm-3 (GRAV EQ),,,
11-01-2000,22:00,8,R,ugm-3 (GRAV EQ),,,
11-01-2000,23:00,5,R,ugm-3 (GRAV EQ),,,
11-01-2000,24:00,5,R,ugm-3 (GRAV EQ),,,
12-01-2000,01:00,9,R,ugm-3 (GRAV EQ),,,
12-01-2000,02:00,8,R,ugm-3 (GRAV EQ),,,
12-01-2000,03:00,5,R,ugm-3 (GRAV EQ),,,
12-01-2000,04:00,7,R,ugm-3 (GRAV EQ),,,
12-01-2000,05:00,5,R,ugm-3 (GRAV EQ),,,
12-01-2000,06:00,5,R,ugm-3 (GRAV EQ),,,
12-01-2000,07:00,3,R,ugm-3 (GRAV EQ),,,
12-01-2000,08:00,1,R,ugm-3 (GRAV EQ),,,
12-01-2000,09:00,3,R,ugm-3 (GRAV EQ),,,
12-01-2000,10:00,9,R,ugm-3 (GRAV EQ),,,
12-01-2000,11:00,4,R,ugm-3 (GRAV EQ),,,
12-01-2000,12:00,5,R,ugm-3 (GRAV EQ),,,
12-01-2000,13:00,7,R,ugm-3 (GRAV EQ),,,
12-01-2000,14:00,1,R,ugm-3 (GRAV EQ),,,
12-01-2000,15:00,8,R,ugm-3 (GRAV EQ),,,
12-01-2000,16:00,1,R,ugm-3 (GRAV EQ),,,
12-01-2000,17:00,4,R,ugm-3 (GRAV EQ),,,
12-01-2000,18:00,5,R,ugm-3 (GRAV EQ),,,
12-01-2000,19:00,8,R,ugm-3 (GRAV EQ),,,
12-01-2000,20:00,21,R,ugm-3 (GRAV EQ),,,
12-01-2000,21:00,18,R,ugm-3 (GRAV EQ),,,
12-01-2000,22:00,20,R,ugm-3 (GRAV EQ),,,
12-01-2000,23:00,10,R,ugm-3 (GRAV EQ),,,
12-01-2000,24:00,7,R,ugm-3 (GRAV EQ),,,
13-01-2000,01:00,7,R,ugm-3 (GRAV EQ),,,
13-01-2000,02:00,8,R,ugm-3 (GRAV EQ),,,
13-01-2000,03:00,0,R,ugm-3 (GRAV EQ),,,
13-01-2000,04:00,-1,R,ugm-3 (GRAV EQ),,,
13-01-2000,05:00,4,R,ugm-3 (GRAV EQ),,,
13-01-2000,06:00,3,R,ugm-3 (GRAV EQ),,,
13-01-2000,07:00,7,R,ugm-3 (GRAV EQ),,,
13-01-2000,08:00,8,R,ugm-3 (GRAV EQ),,,
13-01-2000,09:00,8,R,ugm-3 (GRAV EQ),,,
13-01-2000,10:00,10,R,ugm-3 (GRAV EQ),,,
13-01-2000,11:00,10,R,ugm-3 (GRAV EQ),,,
13-01-2000,12:00,7,R,ugm-3 (GRAV EQ),,,
13-01-2000,13:00,8,R,ugm-3 (GRAV EQ),,,
13-01-2000,14:00,10,R,ugm-3 (GRAV EQ),,,
13-01-2000,15:00,9,R,ugm-3 (GRAV EQ),,,
13-01-2000,16:00,,,,,,
13-01-2000,17:00,,,,,,
13-01-2000,18:00,17,R,ugm-3 (GRAV EQ),,,
13-01-2000,19:00,13,R,ugm-3 (GRAV EQ),,,
13-01-2000,20:00,16,R,ugm-3 (GRAV EQ),,,
13-01-2000,21:00,14,R,ugm-3 (GRAV EQ),,,
13-01-2000,22:00,16,R,ugm-3 (GRAV EQ),,,
13-01-2000,23:00,13,R,ugm-3 (GRAV EQ),,,
13-01-2000,24:00,12,R,ugm-3 (GRAV EQ),,,
14-01-2000,01:00,14,R,ugm-3 (GRAV EQ),,,
14-01-2000,02:00,9,R,ugm-3 (GRAV EQ),,,
14-01-2000,03:00,13,R,ugm-3 (GRAV EQ),,,
14-01-2000,04:00,9,R,ugm-3 (GRAV EQ),,,
14-01-2000,05:00,8,R,ugm-3 (GRAV EQ),,,
14-01-2000,06:00,7,R,ugm-3 (GRAV EQ),,,
14-01-2000,07:00,8,R,ugm-3 (GRAV EQ),,,
14-01-2000,08:00,9,R,ugm-3 (GRAV EQ),,,
14-01-2000,09:00,13,R,ugm-3 (GRAV EQ),,,
14-01-2000,10:00,12,R,ugm-3 (GRAV EQ),,,
14-01-2000,11:00,21,R,ugm-3 (GRAV EQ),,,
14-01-2000,12:00,34,R,ugm-3 (GRAV EQ),,,
14-01-2000,13:00,13,R,ugm-3 (GRAV EQ),,,
14-01-2000,14:00,16,R,ugm-3 (GRAV EQ),,,
14-01-2000,15:00,13,R,ugm-3 (GRAV EQ),,,
14-01-2000,16:00,13,R,ugm-3 (GRAV EQ),,,
14-01-2000,17:00,10,R,ugm-3 (GRAV EQ),,,
14-01-2000,18:00,12,R,ugm-3 (GRAV EQ),,,
14-01-2000,19:00,12,R,ugm-3 (GRAV EQ),,,
14-01-2000,20:00,10,R,ugm-3 (GRAV EQ),,,
14-01-2000,21:00,16,R,ugm-3 (GRAV EQ),,,
14-01-2000,22:00,17,R,ugm-3 (GRAV EQ),,,
14-01-2000,23:00,14,R,ugm-3 (GRAV EQ),,,
14-01-2000,24:00,13,R,ugm-3 (GRAV EQ),,,
15-01-2000,01:00,13,R,ugm-3 (GRAV EQ),,,
15-01-2000,02:00,10,R,ugm-3 (GRAV EQ),,,
15-01-2000,03:00,10,R,ugm-3 (GRAV EQ),,,
15-01-2000,04:00,12,R,ugm-3 (GRAV EQ),,,
15-01-2000,05:00,10,R,ugm-3 (GRAV EQ),,,
15-01-2000,06:00,10,R,ugm-3 (GRAV EQ),,,
15-01-2000,07:00,9,R,ugm-3 (GRAV EQ),,,
15-01-2000,08:00,10,R,ugm-3 (GRAV EQ),,,
15-01-2000,09:00,9,R,ugm-3 (GRAV EQ),,,
15-01-2000,10:00,,,,,,
15-01-2000,11:00,,,,,,
15-01-2000,12:00,,,,,,
15-01-2000,13:00,,,,,,
15-01-2000,14:00,,,,,,
15-01-2000,15:00,,,,,,
15-01-2000,16:00,,,,,,
15-01-2000,17:00,4,R,ugm-3 (GRAV EQ),,,
15-01-2000,18:00,14,R,ugm-3 (GRAV EQ),,,
15-01-2000,19:00,10,R,ugm-3 (GRAV EQ),,,
15-01-2000,20:00,27,R,ugm-3 (GRAV EQ),,,
15-01-2000,21:00,9,R,ugm-3 (GRAV EQ),,,
15-01-2000,22:00,9,R,ugm-3 (GRAV EQ),,,
15-01-2000,23:00,4,R,ugm-3 (GRAV EQ),,,
15-01-2000,24:00,7,R,ugm-3 (GRAV EQ),,,
16-01-2000,01:00,3,R,ugm-3 (GRAV EQ),,,
16-01-2000,02:00,5,R,ugm-3 (GRAV EQ),,,
16-01-2000,03:00,3,R,ugm-3 (GRAV EQ),,,
16-01-2000,04:00,3,R,ugm-3 (GRAV EQ),,,
16-01-2000,05:00,4,R,ugm-3 (GRAV EQ),,,
16-01-2000,06:00,4,R,ugm-3 (GRAV EQ),,,
16-01-2000,07:00,5,R,ugm-3 (GRAV EQ),,,
16-01-2000,08:00,8,R,ugm-3 (GRAV EQ),,,
16-01-2000,09:00,7,R,ugm-3 (GRAV EQ),,,
16-01-2000,10:00,7,R,ugm-3 (GRAV EQ),,,
16-01-2000,11:00,8,R,ugm-3 (GRAV EQ),,,
16-01-2000,12:00,5,R,ugm-3 (GRAV EQ),,,
16-01-2000,13:00,5,R,ugm-3 (GRAV EQ),,,
16-01-2000,14:00,4,R,ugm-3 (GRAV EQ),,,
16-01-2000,15:00,7,R,ugm-3 (GRAV EQ),,,
16-01-2000,16:00,5,R,ugm-3 (GRAV EQ),,,
16-01-2000,17:00,8,R,ugm-3 (GRAV EQ),,,
16-01-2000,18:00,5,R,ugm-3 (GRAV EQ),,,
16-01-2000,19:00,5,R,ugm-3 (GRAV EQ),,,
16-01-2000,20:00,3,R,ugm-3 (GRAV EQ),,,
16-01-2000,21:00,5,R,ugm-3 (GRAV EQ),,,
16-01-2000,22:00,4,R,ugm-3 (GRAV EQ),,,
16-01-2000,23:00,3,R,ugm-3 (GRAV EQ),,,
16-01-2000,24:00,-4,R,ugm-3 (GRAV EQ),,,
17-01-2000,01:00,4,R,ugm-3 (GRAV EQ),,,
17-01-2000,02:00,8,R,ugm-3 (GRAV EQ),,,
17-01-2000,03:00,5,R,ugm-3 (GRAV EQ),,,
17-01-2000,04:00,3,R,ugm-3 (GRAV EQ),,,
17-01-2000,05:00,-4,R,ugm-3 (GRAV EQ),,,
17-01-2000,06:00,-4,R,ugm-3 (GRAV EQ),,,
17-01-2000,07:00,0,R,ugm-3 (GRAV EQ),,,
17-01-2000,08:00,10,R,ugm-3 (GRAV EQ),,,
17-01-2000,09:00,14,R,ugm-3 (GRAV EQ),,,
17-01-2000,10:00,9,R,ugm-3 (GRAV EQ),,,
17-01-2000,11:00,7,R,ugm-3 (GRAV EQ),,,
17-01-2000,12:00,4,R,ugm-3 (GRAV EQ),,,
17-01-2000,13:00,5,R,ugm-3 (GRAV EQ),,,
17-01-2000,14:00,1,R,ugm-3 (GRAV EQ),,,
17-01-2000,15:00,4,R,ugm-3 (GRAV EQ),,,
17-01-2000,16:00,4,R,ugm-3 (GRAV EQ),,,
17-01-2000,17:00,4,R,ugm-3 (GRAV EQ),,,
17-01-2000,18:00,13,R,ugm-3 (GRAV EQ),,,
17-01-2000,19:00,21,R,ugm-3 (GRAV EQ),,,
17-01-2000,20:00,9,R,ugm-3 (GRAV EQ),,,
17-01-2000,21:00,16,R,ugm-3 (GRAV EQ),,,
17-01-2000,22:00,17,R,ugm-3 (GRAV EQ),,,
17-01-2000,23:00,17,R,ugm-3 (GRAV EQ),,,
17-01-2000,24:00,9,R,ugm-3 (GRAV EQ),,,
18-01-2000,01:00,5,R,ugm-3 (GRAV EQ),,,
18-01-2000,02:00,3,R,ugm-3 (GRAV EQ),,,
18-01-2000,03:00,3,R,ugm-3 (GRAV EQ),,,
18-01-2000,04:00,3,R,ugm-3 (GRAV EQ),,,
18-01-2000,05:00,1,R,ugm-3 (GRAV EQ),,,
18-01-2000,06:00,3,R,ugm-3 (GRAV EQ),,,
18-01-2000,07:00,1,R,ugm-3 (GRAV EQ),,,
18-01-2000,08:00,1,R,ugm-3 (GRAV EQ),,,
18-01-2000,09:00,4,R,ugm-3 (GRAV EQ),,,
18-01-2000,10:00,3,R,ugm-3 (GRAV EQ),,,
18-01-2000,11:00,4,R,ugm-3 (GRAV EQ),,,
18-01-2000,12:00,4,R,ugm-3 (GRAV EQ),,,
18-01-2000,13:00,1,R,ugm-3 (GRAV EQ),,,
18-01-2000,14:00,1,R,ugm-3 (GRAV EQ),,,
18-01-2000,15:00,4,R,ugm-3 (GRAV EQ),,,
18-01-2000,16:00,4,R,ugm-3 (GRAV EQ),,,
18-01-2000,17:00,8,R,ugm-3 (GRAV EQ),,,
18-01-2000,18:00,8,R,ugm-3 (GRAV EQ),,,
18-01-2000,19:00,17,R,ugm-3 (GRAV EQ),,,
18-01-2000,20:00,20,R,ugm-3 (GRAV EQ),,,
18-01-2000,21:00,20,R,ugm-3 (GRAV EQ),,,
18-01-2000,22:00,20,R,ugm-3 (GRAV EQ),,,
18-01-2000,23:00,17,R,ugm-3 (GRAV EQ),,,
18-01-2000,24:00,20,R,ugm-3 (GRAV EQ),,,
19-01-2000,01:00,17,R,ugm-3 (GRAV EQ),,,
19-01-2000,02:00,17,R,ugm-3 (GRAV EQ),,,
19-01-2000,03:00,17,R,ugm-3 (GRAV EQ),,,
19-01-2000,04:00,14,R,ugm-3 (GRAV EQ),,,
19-01-2000,05:00,12,R,ugm-3 (GRAV EQ),,,
19-01-2000,06:00,10,R,ugm-3 (GRAV EQ),,,
19-01-2000,07:00,12,R,ugm-3 (GRAV EQ),,,
19-01-2000,08:00,13,R,ugm-3 (GRAV EQ),,,
19-01-2000,09:00,12,R,ugm-3 (GRAV EQ),,,
19-01-2000,10:00,13,R,ugm-3 (GRAV EQ),,,
19-01-2000,11:00,13,R,ugm-3 (GRAV EQ),,,
19-01-2000,12:00,13,R,ugm-3 (GRAV EQ),,,
19-01-2000,13:00,10,R,ugm-3 (GRAV EQ),,,
19-01-2000,14:00,7,R,ugm-3 (GRAV EQ),,,
19-01-2000,15:00,13,R,ugm-3 (GRAV EQ),,,
19-01-2000,16:00,14,R,ugm-3 (GRAV EQ),,,
19-01-2000,17:00,13,R,ugm-3 (GRAV EQ),,,
19-01-2000,18:00,13,R,ugm-3 (GRAV EQ),,,
19-01-2000,19:00,18,R,ugm-3 (GRAV EQ),,,
19-01-2000,20:00,14,R,ugm-3 (GRAV EQ),,,
19-01-2000,21:00,21,R,ugm-3 (GRAV EQ),,,
19-01-2000,22:00,14,R,ugm-3 (GRAV EQ),,,
19-01-2000,23:00,13,R,ugm-3 (GRAV EQ),,,
19-01-2000,24:00,14,R,ugm-3 (GRAV EQ),,,
20-01-2000,01:00,16,R,ugm-3 (GRAV EQ),,,
20-01-2000,02:00,12,R,ugm-3 (GRAV EQ),,,
20-01-2000,03:00,10,R,ugm-3 (GRAV EQ),,,
20-01-2000,04:00,9,R,ugm-3 (GRAV EQ),,,
20-01-2000,05:00,8,R,ugm-3 (GRAV EQ),,,
20-01-2000,06:00,5,R,ugm-3 (GRAV EQ),,,
20-01-2000,07:00,7,R,ugm-3 (GRAV EQ),,,
20-01-2000,08:00,7,R,ugm-3 (GRAV EQ),,,
20-01-2000,09:00,7,R,ugm-3 (GRAV EQ),,,
20-01-2000,10:00,8,R,ugm-3 (GRAV EQ),,,
20-01-2000,11:00,8,R,ugm-3 (GRAV EQ),,,
20-01-2000,12:00,7,R,ugm-3 (GRAV EQ),,,
20-01-2000,13:00,5,R,ugm-3 (GRAV EQ),,,
20-01-2000,14:00,5,R,ugm-3 (GRAV EQ),,,
20-01-2000,15:00,7,R,ugm-3 (GRAV EQ),,,
20-01-2000,16:00,5,R,ugm-3 (GRAV EQ),,,
20-01-2000,17:00,1,R,ugm-3 (GRAV EQ),,,
20-01-2000,18:00,8,R,ugm-3 (GRAV EQ),,,
20-01-2000,19:00,9,R,ugm-3 (GRAV EQ),,,
20-01-2000,20:00,27,R,ugm-3 (GRAV EQ),,,
20-01-2000,21:00,13,R,ugm-3 (GRAV EQ),,,
20-01-2000,22:00,5,R,ugm-3 (GRAV EQ),,,
20-01-2000,23:00,5,R,ugm-3 (GRAV EQ),,,
20-01-2000,24:00,5,R,ugm-3 (GRAV EQ),,,
21-01-2000,01:00,3,R,ugm-3 (GRAV EQ),,,
21-01-2000,02:00,1,R,ugm-3 (GRAV EQ),,,
21-01-2000,03:00,8,R,ugm-3 (GRAV EQ),,,
21-01-2000,04:00,7,R,ugm-3 (GRAV EQ),,,
21-01-2000,05:00,8,R,ugm-3 (GRAV EQ),,,
21-01-2000,06:00,5,R,ugm-3 (GRAV EQ),,,
21-01-2000,07:00,5,R,ugm-3 (GRAV EQ),,,
21-01-2000,08:00,4,R,ugm-3 (GRAV EQ),,,
21-01-2000,09:00,5,R,ugm-3 (GRAV EQ),,,
21-01-2000,10:00,8,R,ugm-3 (GRAV EQ),,,
21-01-2000,11:00,7,R,ugm-3 (GRAV EQ),,,
21-01-2000,12:00,8,R,ugm-3 (GRAV EQ),,,
21-01-2000,13:00,8,R,ugm-3 (GRAV EQ),,,
21-01-2000,14:00,7,R,ugm-3 (GRAV EQ),,,
21-01-2000,15:00,4,R,ugm-3 (GRAV EQ),,,
21-01-2000,16:00,5,R,ugm-3 (GRAV EQ),,,
21-01-2000,17:00,5,R,ugm-3 (GRAV EQ),,,
21-01-2000,18:00,8,R,ugm-3 (GRAV EQ),,,
21-01-2000,19:00,10,R,ugm-3 (GRAV EQ),,,
21-01-2000,20:00,8,R,ugm-3 (GRAV EQ),,,
21-01-2000,21:00,16,R,ugm-3 (GRAV EQ),,,
21-01-2000,22:00,16,R,ugm-3 (GRAV EQ),,,
21-01-2000,23:00,16,R,ugm-3 (GRAV EQ),,,
21-01-2000,24:00,9,R,ugm-3 (GRAV EQ),,,
22-01-2000,01:00,16,R,ugm-3 (GRAV EQ),,,
22-01-2000,02:00,12,R,ugm-3 (GRAV EQ),,,
22-01-2000,03:00,17,R,ugm-3 (GRAV EQ),,,
22-01-2000,04:00,14,R,ugm-3 (GRAV EQ),,,
22-01-2000,05:00,18,R,ugm-3 (GRAV EQ),,,
22-01-2000,06:00,21,R,ugm-3 (GRAV EQ),,,
22-01-2000,07:00,26,R,ugm-3 (GRAV EQ),,,
22-01-2000,08:00,26,R,ugm-3 (GRAV EQ),,,
22-01-2000,09:00,30,R,ugm-3 (GRAV EQ),,,
22-01-2000,10:00,36,R,ugm-3 (GRAV EQ),,,
22-01-2000,11:00,36,R,ugm-3 (GRAV EQ),,,
22-01-2000,12:00,36,R,ugm-3 (GRAV EQ),,,
22-01-2000,13:00,38,R,ugm-3 (GRAV EQ),,,
22-01-2000,14:00,34,R,ugm-3 (GRAV EQ),,,
22-01-2000,15:00,33,R,ugm-3 (GRAV EQ),,,
22-01-2000,16:00,36,R,ugm-3 (GRAV EQ),,,
22-01-2000,17:00,36,R,ugm-3 (GRAV EQ),,,
22-01-2000,18:00,38,R,ugm-3 (GRAV EQ),,,
22-01-2000,19:00,30,R,ugm-3 (GRAV EQ),,,
22-01-2000,20:00,30,R,ugm-3 (GRAV EQ),,,
22-01-2000,21:00,26,R,ugm-3 (GRAV EQ),,,
22-01-2000,22:00,27,R,ugm-3 (GRAV EQ),,,
22-01-2000,23:00,26,R,ugm-3 (GRAV EQ),,,
22-01-2000,24:00,25,R,ugm-3 (GRAV EQ),,,
23-01-2000,01:00,23,R,ugm-3 (GRAV EQ),,,
23-01-2000,02:00,21,R,ugm-3 (GRAV EQ),,,
23-01-2000,03:00,18,R,ugm-3 (GRAV EQ),,,
23-01-2000,04:00,18,R,ugm-3 (GRAV EQ),,,
23-01-2000,05:00,13,R,ugm-3 (GRAV EQ),,,
23-01-2000,06:00,12,R,ugm-3 (GRAV EQ),,,
23-01-2000,07:00,12,R,ugm-3 (GRAV EQ),,,
23-01-2000,08:00,9,R,ugm-3 (GRAV EQ),,,
23-01-2000,09:00,5,R,ugm-3 (GRAV EQ),,,
23-01-2000,10:00,7,R,ugm-3 (GRAV EQ),,,
23-01-2000,11:00,13,R,ugm-3 (GRAV EQ),,,
23-01-2000,12:00,7,R,ugm-3 (GRAV EQ),,,
23-01-2000,13:00,9,R,ugm-3 (GRAV EQ),,,
23-01-2000,14:00,7,R,ugm-3 (GRAV EQ),,,
23-01-2000,15:00,7,R,ugm-3 (GRAV EQ),,,
23-01-2000,16:00,10,R,ugm-3 (GRAV EQ),,,
23-01-2000,17:00,10,R,ugm-3 (GRAV EQ),,,
23-01-2000,18:00,20,R,ugm-3 (GRAV EQ),,,
23-01-2000,19:00,21,R,ugm-3 (GRAV EQ),,,
23-01-2000,20:00,23,R,ugm-3 (GRAV EQ),,,
23-01-2000,21:00,10,R,ugm-3 (GRAV EQ),,,
23-01-2000,22:00,5,R,ugm-3 (GRAV EQ),,,
23-01-2000,23:00,10,R,ugm-3 (GRAV EQ),,,
23-01-2000,24:00,12,R,ugm-3 (GRAV EQ),,,
24-01-2000,01:00,10,R,ugm-3 (GRAV EQ),,,
24-01-2000,02:00,16,R,ugm-3 (GRAV EQ),,,
24-01-2000,03:00,13,R,ugm-3 (GRAV EQ),,,
24-01-2000,04:00,9,R,ugm-3 (GRAV EQ),,,
24-01-2000,05:00,8,R,ugm-3 (GRAV EQ),,,
24-01-2000,06:00,9,R,ugm-3 (GRAV EQ),,,
24-01-2000,07:00,5,R,ugm-3 (GRAV EQ),,,
24-01-2000,08:00,5,R,ugm-3 (GRAV EQ),,,
24-01-2000,09:00,-1,R,ugm-3 (GRAV EQ),,,
24-01-2000,10:00,8,R,ugm-3 (GRAV EQ),,,
24-01-2000,11:00,14,R,ugm-3 (GRAV EQ),,,
24-01-2000,12:00,8,R,ugm-3 (GRAV EQ),,,
24-01-2000,13:00,4,R,ugm-3 (GRAV EQ),,,
24-01-2000,14:00,3,R,ugm-3 (GRAV EQ),,,
24-01-2000,15:00,3,R,ugm-3 (GRAV EQ),,,
24-01-2000,16:00,4,R,ugm-3 (GRAV EQ),,,
24-01-2000,17:00,8,R,ugm-3 (GRAV EQ),,,
24-01-2000,18:00,3,R,ugm-3 (GRAV EQ),,,
24-01-2000,19:00,8,R,ugm-3 (GRAV EQ),,,
24-01-2000,20:00,4,R,ugm-3 (GRAV EQ),,,
24-01-2000,21:00,13,R,ugm-3 (GRAV EQ),,,
24-01-2000,22:00,12,R,ugm-3 (GRAV EQ),,,
24-01-2000,23:00,4,R,ugm-3 (GRAV EQ),,,
24-01-2000,24:00,7,R,ugm-3 (GRAV EQ),,,
25-01-2000,01:00,5,R,ugm-3 (GRAV EQ),,,
25-01-2000,02:00,7,R,ugm-3 (GRAV EQ),,,
25-01-2000,03:00,7,R,ugm-3 (GRAV EQ),,,
25-01-2000,04:00,8,R,ugm-3 (GRAV EQ),,,
25-01-2000,05:00,9,R,ugm-3 (GRAV EQ),,,
25-01-2000,06:00,10,R,ugm-3 (GRAV EQ),,,
25-01-2000,07:00,8,R,ugm-3 (GRAV EQ),,,
25-01-2000,08:00,5,R,ugm-3 (GRAV EQ),,,
25-01-2000,09:00,4,R,ugm-3 (GRAV EQ),,,
25-01-2000,10:00,8,R,ugm-3 (GRAV EQ),,,
25-01-2000,11:00,8,R,ugm-3 (GRAV EQ),,,
25-01-2000,12:00,10,R,ugm-3 (GRAV EQ),,,
25-01-2000,13:00,23,R,ugm-3 (GRAV EQ),,,
25-01-2000,14:00,8,R,ugm-3 (GRAV EQ),,,
25-01-2000,15:00,8,R,ugm-3 (GRAV EQ),,,
25-01-2000,16:00,7,R,ugm-3 (GRAV EQ),,,